Weather History for Sheridan, WY

Change the Weather History Date:

Sunday, January 29, 2012

  Actual Average Record
Temperature  
Mean Temperature 41 °F 24 °F  
Max Temperature 56 °F 37 °F 71 °F (1931)
Min Temperature 25 °F 12 °F -30 °F (1951)
Degree Days  
Heating Degree Days 24 41  
Month to date heating degree days 1083 1198  
Since 1 July heating degree days 3920 4381  
Cooling Degree Days 0 0  
Month to date cooling degree days 0 0  
Year to date cooling degree days 0 0  
Moisture  
Dew Point 22 °F    
Average Humidity 51    
Maximum Humidity 75    
Minimum Humidity 26    
Precipitation  
Precipitation 0.00 in 0.02 in 0.36 in (1994)
Month to date precipitation 0.35 0.52  
Year to date precipitation 0.35 0.52  
Sea Level Pressure  
Sea Level Pressure 29.89 in    
Wind  
Wind Speed 11 mph (West)    
Max Wind Speed 32 mph    
Max Gust Speed 41 mph    
Visibility 10 miles    
Events      
T = Trace of Precipitation, MM = Missing Value Source: NWS Daily Summary

Daily Weather History Graph

Daily Weather History Graph

Search for Another Location

Airport:

Trip Planner

Search our weather history database for the weather conditions in past years. The results will help you decide how hot, cold, wet, or windy it might be!

Date:

Astronomy

Jan. 29, 2012 Rise Set
Actual Time 7:30 AM MST 5:11 PM MST
Civil Twilight 6:59 AM MST 5:43 PM MST
Nautical Twilight 6:24 AM MST 6:18 PM MST
Astronomical Twilight 5:49 AM MST 6:52 PM MST
Moon 10:03 AM MST (1/29) No Moon Set
Length of Visible Light 10h 43m
Length of Day
9h 40m
Waxing Crescent, 37% of the Moon is Illuminated
Jan 29
Waxing Crescent
Jan 30
First Quarter
Feb 7
Full
Feb 14
Last Quarter
Feb 21
New

Hourly Weather History & Observations

Time (MST) Temp. Windchill Dew Point Humidity Pressure Visibility Wind Dir Wind Speed Gust Speed Precip Events Conditions
12:53 AM 27.0 °F - 19.9 °F 75% 30.08 in 10.0 mi Calm Calm - N/A   Overcast
1:53 AM 28.0 °F 21.7 °F 18.0 °F 66% 30.06 in 10.0 mi SSW 5.8 mph - N/A   Mostly Cloudy
2:53 AM 26.1 °F 21.9 °F 19.9 °F 78% 30.05 in 10.0 mi SW 3.5 mph - N/A   Overcast
3:53 AM 34.0 °F 29.8 °F 23.0 °F 64% 30.02 in 10.0 mi SW 4.6 mph - N/A   Overcast
4:53 AM 37.0 °F - 24.1 °F 59% 30.01 in 10.0 mi Calm Calm - N/A   Overcast
5:53 AM 46.9 °F - 25.0 °F 42% 29.98 in 10.0 mi WNW 10.4 mph - N/A   Mostly Cloudy
6:53 AM 45.0 °F 39.3 °F 26.1 °F 48% 29.99 in 10.0 mi West 11.5 mph - N/A   Partly Cloudy
7:53 AM 42.1 °F 39.2 °F 24.1 °F 49% 29.99 in 10.0 mi WNW 4.6 mph - N/A   Clear
8:53 AM 51.1 °F - 24.1 °F 35% 29.94 in 10.0 mi WNW 6.9 mph - N/A   Overcast
9:53 AM 51.8 °F - 24.8 °F 35% 29.88 in 10.0 mi WNW 13.8 mph 21.9 mph N/A   Overcast
10:53 AM 51.1 °F - 25.0 °F 36% 29.96 in 10.0 mi West 12.7 mph 18.4 mph N/A   Overcast
11:53 AM 51.1 °F - 26.1 °F 38% 29.94 in 10.0 mi West 13.8 mph 19.6 mph N/A   Partly Cloudy
12:53 PM 53.1 °F - 24.1 °F 32% 29.89 in 10.0 mi West 17.3 mph 28.8 mph N/A   Clear
1:53 PM 52.0 °F - 25.0 °F 35% 29.85 in 10.0 mi NW 9.2 mph 23.0 mph N/A   Clear
2:53 PM 53.1 °F - 24.1 °F 32% 29.83 in 10.0 mi West 12.7 mph 24.2 mph N/A   Clear
3:53 PM 55.0 °F - 21.0 °F 27% 29.81 in 10.0 mi West 23.0 mph 38.0 mph N/A   Clear
4:53 PM 51.1 °F - 21.9 °F 32% 29.82 in 10.0 mi WNW 16.1 mph 32.2 mph N/A   Clear
5:53 PM 51.1 °F - 19.9 °F 29% 29.76 in 10.0 mi WSW 23.0 mph 33.4 mph N/A   Clear
6:53 PM 50.0 °F - 19.9 °F 31% 29.78 in 10.0 mi West 12.7 mph 23.0 mph N/A   Clear
7:53 PM 46.0 °F 43.1 °F 21.0 °F 37% 29.80 in 10.0 mi WSW 5.8 mph - N/A   Clear
8:53 PM 46.9 °F - 21.0 °F 36% 29.77 in 10.0 mi WNW 13.8 mph 17.3 mph N/A   Clear
9:53 PM 46.9 °F - 21.0 °F 36% 29.76 in 10.0 mi West 6.9 mph - N/A   Clear
10:53 PM 46.9 °F - 21.0 °F 36% 29.74 in 10.0 mi West 12.7 mph - N/A   Clear
11:53 PM 52.0 °F - 18.0 °F 26% 29.71 in 10.0 mi West 15.0 mph 24.2 mph N/A   Clear